Wind_Speed
52 58 64 70 82 90 97 107 121 106 86 72 64 59 48 35 25 16 5 6 18 28 36 45 54 68 85 85 80 81 85 88 92 98 103 102 100 95 90 86 83 79 78 80 82 82 83
53 58 64 70 82 90 96 106 118 120 97 82 66 60 52 42 31 22 10 5 11 25 33 41 50 62 81 85 77 76 82 86 85 91 100 101 100 97 93 90 86 83 77 74 78 81 83
52 59 64 70 80 88 95 105 116 124 114 91 77 62 56 53 40 31 18 13 9 17 28 38 48 59 71 78 73 68 71 77 82 85 91 100 101 99 94 92 90 87 83 79 77 79 81
52 59 61 69 80 87 94 101 111 120 124 107 89 69 63 58 50 37 26 27 19 10 24 32 41 53 62 72 78 71 71 75 78 80 83 89 96 99 95 93 90 86 83 82 80 79 78
50 57 62 67 76 82 91 98 106 116 124 126 103 87 69 63 57 44 33 30 19 14 8 24 33 45 55 68 77 79 76 77 76 76 78 82 86 88 94 93 89 87 85 83 81 77 76
49 54 60 65 70 80 86 94 99 107 115 124 125 102 81 70 64 56 52 40 31 21 15 8 15 25 39 56 66 70 78 74 75 73 72 71 75 78 82 89 88 86 85 84 81 80 78
45 53 57 65 65 76 82 89 94 102 109 115 123 122 101 80 69 64 61 52 46 34 30 21 14 8 4 16 24 41 64 72 72 69 68 67 68 68 71 80 88 89 85 84 82 81 79
41 47 52 58 64 69 76 84 90 96 102 109 114 118 125 105 80 73 67 57 50 43 32 26 21 19 15 13 10 13 19 48 70 65 61 59 58 58 58 62 71 84 91 88 86 84 81
38 42 50 54 61 65 73 78 85 90 96 102 108 113 118 120 114 87 72 64 52 44 40 34 27 22 15 14 13 15 23 26 40 65 64 63 56 52 49 50 55 63 75 86 88 86 86
33 40 46 48 55 62 68 73 79 85 91 98 102 105 111 112 117 119 91 67 61 57 48 37 31 26 17 14 15 23 29 37 41 49 70 65 57 49 46 43 42 43 49 58 70 80 84
33 35 42 46 53 58 62 67 73 79 84 90 95 98 101 104 107 114 116 102 79 64 56 48 39 27 23 15 13 22 31 39 49 53 59 66 58 50 45 40 36 34 36 38 42 48 56
29 31 36 42 45 54 56 60 66 70 76 82 87 92 95 97 98 103 108 106 107 91 68 58 51 44 33 23 14 8 18 29 43 53 56 57 59 52 46 39 34 31 29 28 29 31 36
22 28 31 35 42 47 52 55 60 65 70 74 79 82 87 91 94 97 102 101 103 102 99 80 60 51 46 40 30 17 6 12 25 42 53 56 53 47 42 36 33 28 25 25 26 27 31
18 24 26 29 35 43 47 50 55 60 65 66 69 75 78 82 87 90 92 95 94 99 99 102 95 79 61 49 45 39 23 12 9 20 35 44 40 38 36 33 30 27 27 28 29 30 33
19 21 24 26 30 39 40 43 51 56 58 63 64 65 70 74 77 81 85 84 86 89 89 90 94 95 90 80 64 53 45 34 19 7 15 23 30 30 29 29 29 29 30 32 35 37 41
17 18 22 20 29 33 36 38 42 48 54 58 60 60 65 67 69 72 75 74 78 80 83 85 85 85 86 88 86 76 66 52 39 27 13 9 18 24 27 28 28 31 33 35 36 40 41
21 17 21 23 25 29 33 36 37 41 47 53 56 60 61 62 64 66 67 67 69 71 73 75 77 78 77 78 78 76 78 70 61 53 43 33 25 16 10 5 5 6 5 6 9 9 10
21 21 20 25 25 25 31 30 36 37 42 48 51 55 55 59 60 59 63 64 62 63 65 67 68 69 70 68 66 67 68 67 69 61 56 54 52 45 39 32 27 22 18 18 15 14 12
24 23 22 25 26 21 27 29 32 34 38 42 48 49 54 56 57 55 60 65 64 62 61 59 61 62 61 62 62 61 60 60 60 59 57 55 52 48 43 40 38 36 32 29 27 23 20
27 27 24 25 29 22 27 30 30 31 35 41 43 45 48 54 55 54 56 59 60 61 61 58 54 55 56 52 51 51 52 52 52 51 51 49 49 46 45 44 44 39 34 29 27 25 24
31 26 22 23 26 23 28 29 29 30 35 39 39 43 45 48 49 52 54 53 54 56 58 57 56 52 51 49 47 43 43 43 42 41 42 43 44 41 42 40 38 38 37 35 35 34 29
35 30 25 25 26 28 30 33 32 33 37 39 37 44 45 44 46 47 49 51 50 51 53 56 54 51 51 47 41 41 38 36 37 36 36 35 34 38 36 38 39 36 34 34 34 33 30
33 28 29 28 30 32 33 34 35 33 36 38 40 43 46 45 47 47 49 48 51 51 51 52 51 51 53 48 46 42 39 41 36 34 31 31 30 30 31 32 32 34 30 28 31 30 29
32 34 36 36 34 35 39 38 38 39 40 40 43 43 45 47 46 48 48 50 50 53 54 52 52 51 50 50 50 44 37 42 41 39 35 34 31 30 32 31 32 32 34 34 29 29 29
40 42 42 42 43 44 44 43 44 45 47 46 44 46 48 49 49 47 49 51 52 51 52 54 53 51 51 49 50 48 43 38 40 42 43 41 43 42 42 40 38 36 37 39 37 31 32
47 48 49 49 49 49 48 49 48 49 51 50 50 50 49 48 50 50 51 53 56 55 52 52 53 53 51 49 49 49 48 41 37 41 46 46 45 47 44 45 47 43 49 48 46 43 39
54 53 52 55 54 54 54 53 53 54 55 55 52 53 53 57 55 54 55 56 58 59 58 55 53 53 55 52 49 48 50 51 48 41 45 47 51 51 46 45 49 55 54 51 47 45 45
61 59 61 61 60 60 61 60 60 58 56 54 56 59 61 58 59 63 62 61 61 62 60 59 58 57 55 56 54 52 53 53 51 50 55 56 55 56 53 54 55 55 55 54 51 48 45
65 67 66 66 67 67 67 67 68 67 66 62 63 60 62 67 69 69 70 66 65 68 66 63 64 65 63 66 62 57 55 56 58 58 61 60 63 64 67 71 70 57 58 58 59 55 51
Wind_Direction
356 357 5 11 16 16 13 15 20 19 17 16 20 19 17 16 16 16 52 195 196 190 193 195 194 197 201 209 212 212 217 218 217 219 222 222 225 226 227 226 227 227 231 233 235 237 239
358 4 7 12 16 18 16 17 21 23 22 22 23 26 25 21 24 29 47 96 182 188 188 187 190 194 201 206 209 209 211 216 218 219 220 222 223 226 227 225 225 227 227 232 236 238 240
4 7 7 14 20 18 19 20 23 25 25 25 26 27 32 31 32 34 52 61 121 172 178 183 189 193 197 204 209 207 209 215 218 219 220 221 223 225 226 227 229 229 230 231 235 238 241
7 9 10 14 20 20 21 24 25 27 27 28 29 29 33 36 38 41 60 61 54 113 174 182 189 191 195 197 203 205 209 213 216 218 219 221 222 225 228 228 229 230 231 235 238 239 241
12 10 12 15 14 19 21 25 27 27 29 29 32 35 34 40 43 50 64 73 48 62 116 178 188 194 197 202 203 203 204 209 214 217 219 221 222 224 226 228 231 232 234 235 236 238 241
14 12 15 18 12 19 21 25 28 28 29 32 33 36 37 40 45 51 55 60 70 54 60 148 194 201 208 213 216 211 209 208 210 215 218 220 222 223 225 227 229 231 234 236 238 240 241
14 13 16 19 20 20 22 24 27 29 31 31 34 37 38 37 45 49 53 52 59 60 68 89 104 99 321 249 241 224 216 210 212 214 217 218 219 222 225 227 230 233 235 237 240 242 244
16 12 15 18 21 21 24 25 26 29 31 33 33 34 39 41 39 46 50 50 53 59 62 66 80 103 121 147 171 181 219 218 215 215 217 218 219 222 225 228 232 235 234 238 242 243 244
16 15 14 17 19 24 23 23 26 28 30 33 35 34 35 40 43 41 45 50 55 61 61 58 56 72 96 137 157 161 170 185 205 214 214 216 218 220 224 227 231 234 236 239 241 244 246
11 18 15 16 20 23 24 24 24 26 29 29 33 35 35 37 40 45 46 45 52 56 56 60 62 65 80 126 148 176 181 185 189 201 212 217 221 221 222 224 228 235 241 244 245 247 247
1 18 21 19 19 24 23 25 26 26 27 29 30 33 36 37 40 40 43 46 50 51 55 57 58 64 74 77 144 179 188 193 194 196 203 210 211 218 219 224 230 240 246 249 251 251 252
357 15 21 18 18 24 23 24 25 27 28 28 30 32 32 34 36 39 44 41 46 48 49 52 56 55 55 62 79 166 192 199 201 201 200 202 206 212 216 221 229 241 248 250 249 248 248
349 2 15 19 22 20 21 24 24 26 27 29 27 31 31 31 31 35 40 39 40 43 49 52 54 58 58 55 55 71 153 201 208 204 207 203 205 209 214 220 230 241 243 246 249 248 249
349 354 6 13 20 21 18 23 23 23 25 28 30 27 30 33 29 31 38 39 36 38 41 45 51 54 56 59 61 63 68 79 158 209 209 211 210 211 216 223 232 241 246 251 252 253 254
336 346 360 6 11 15 22 21 22 22 23 24 27 28 27 29 31 29 35 37 31 32 39 40 45 48 53 55 58 61 63 66 75 123 196 208 217 222 228 235 241 249 255 258 258 260 258
325 335 346 2 3 13 14 21 23 25 22 21 22 27 26 26 29 28 33 32 32 32 32 33 39 42 43 49 54 59 62 65 70 80 102 186 222 234 244 249 253 258 262 264 266 268 268
314 322 331 337 350 4 6 17 19 17 19 19 22 24 25 27 25 26 31 32 29 30 30 32 31 34 41 43 43 49 54 60 64 69 74 80 88 98 113 148 186 224 242 251 276 277 267
302 298 320 325 335 347 357 10 11 12 11 11 15 20 24 23 25 24 27 26 27 27 27 27 30 29 30 35 41 42 43 47 53 60 66 68 71 71 71 72 73 76 72 68 64 55 52
287 289 295 314 317 334 343 355 3 1 6 4 3 9 14 17 19 25 25 24 25 25 25 24 26 25 27 29 31 34 38 41 42 45 51 55 57 60 60 60 62 62 59 55 50 48 45
287 283 291 302 310 323 330 340 350 350 351 352 355 2 6 7 12 16 16 16 19 20 20 22 21 19 21 23 28 28 31 35 36 38 40 43 45 45 45 48 49 53 51 49 48 44 39
278 274 284 288 302 308 316 325 335 337 339 343 347 354 354 357 3 4 7 12 15 15 15 16 17 19 17 17 17 20 24 28 31 35 34 32 32 33 33 35 36 34 34 33 37 39 34
276 272 277 278 294 299 306 314 323 324 330 334 336 344 347 348 351 353 358 0 7 7 8 10 10 13 13 14 10 10 11 14 16 19 21 24 25 21 22 19 21 21 19 18 20 18 19
264 269 271 280 287 293 300 306 313 315 320 322 327 333 336 340 342 346 348 353 354 358 359 360 3 3 5 7 12 8 6 8 2 3 5 6 6 7 8 8 7 8 8 3 2 3 4
264 272 277 279 281 286 295 296 301 306 310 312 317 322 327 331 333 335 341 343 345 346 347 350 353 354 355 357 357 3 4 2 4 357 351 350 349 349 350 350 351 350 353 349 348 348 345
267 273 276 277 282 285 288 290 294 299 304 305 310 312 317 323 325 326 332 334 335 338 339 341 343 345 347 349 349 351 350 349 348 353 350 342 340 336 335 335 335 336 337 343 336 332 330
266 272 273 274 279 282 286 291 290 293 298 299 303 305 309 314 316 317 320 322 326 328 330 332 332 335 338 339 340 343 345 343 328 326 337 337 338 337 330 326 323 326 324 329 330 326 331
266 268 269 272 275 278 280 284 288 290 293 295 298 301 298 301 306 309 311 315 318 321 323 325 327 328 331 332 332 335 335 339 337 322 326 328 330 336 334 322 315 315 315 319 324 322 325
262 265 269 272 274 276 278 283 284 286 288 290 291 293 298 298 300 305 308 312 314 316 318 318 321 322 324 327 328 327 327 330 330 326 329 326 327 328 331 325 320 315 313 314 318 315 315
264 268 269 270 273 276 279 280 282 283 284 286 288 290 293 294 298 301 304 307 310 310 310 311 313 317 315 317 322 322 320 323 328 322 320 317 320 325 327 325 331 323 316 309 308 311 310
Height
10722 10709 10693 10674 10653 10629 10603 10572 10537 10495 10466 10444 10424 10406 10392 10380 10371 10368 10365 10365 10369 10378 10385 10396 10412 10427 10435 10452 10479 10503 10517 10533 10551 10570 10589 10605 10618 10630 10644 10657 10666 10675 10684 10693 10701 10708 10714
10720 10706 10690 10673 10651 10630 10607 10577 10544 10507 10476 10454 10434 10413 10398 10385 10378 10374 10371 10373 10374 10379 10389 10400 10412 10426 10437 10452 10477 10497 10513 10527 10545 10560 10577 10594 10609 10623 10634 10643 10654 10664 10673 10683 10691 10699 10706
10719 10705 10689 10673 10653 10633 10611 10584 10552 10520 10487 10461 10442 10422 10405 10395 10387 10383 10381 10383 10383 10388 10396 10405 10413 10424 10438 10457 10478 10497 10513 10524 10536 10552 10565 10581 10596 10611 10624 10634 10645 10656 10667 10674 10683 10691 10696
10719 10705 10690 10674 10655 10637 10617 10593 10564 10535 10503 10474 10453 10431 10414 10404 10397 10394 10393 10394 10396 10399 10404 10414 10422 10430 10442 10457 10468 10493 10508 10517 10529 10544 10559 10574 10588 10603 10616 10629 10639 10650 10660 10669 10677 10682 10688
10718 10705 10691 10676 10658 10642 10624 10602 10578 10551 10522 10490 10466 10447 10431 10420 10414 10410 10405 10405 10407 10411 10417 10422 10432 10441 10449 10456 10467 10483 10499 10511 10527 10539 10554 10567 10582 10596 10609 10621 10634 10645 10655 10661 10667 10674 10679
10719 10707 10694 10679 10663 10647 10631 10611 10591 10570 10545 10518 10489 10467 10453 10439 10430 10427 10422 10420 10421 10425 10426 10435 10443 10451 10456 10461 10470 10488 10499 10512 10522 10536 10549 10563 10576 10590 10602 10616 10628 10636 10645 10652 10659 10665 10672
10720 10710 10696 10683 10669 10655 10638 10621 10602 10584 10565 10542 10518 10495 10474 10460 10449 10441 10437 10435 10434 10436 10437 10442 10449 10457 10467 10473 10481 10490 10501 10512 10522 10534 10547 10558 10571 10584 10596 10607 10618 10628 10637 10644 10652 10657 10665
10722 10712 10701 10688 10675 10661 10646 10631 10614 10597 10581 10561 10539 10519 10502 10485 10469 10455 10452 10449 10447 10450 10455 10457 10459 10463 10468 10473 10481 10490 10499 10514 10525 10536 10547 10559 10570 10582 10592 10602 10610 10619 10628 10634 10642 10648 10654
10724 10715 10705 10693 10681 10668 10654 10639 10625 10610 10594 10579 10560 10542 10525 10508 10493 10473 10471 10467 10466 10463 10463 10465 10469 10471 10473 10474 10479 10487 10496 10507 10521 10533 10541 10552 10565 10577 10587 10596 10603 10611 10618 10624 10631 10637 10643
10725 10717 10709 10697 10687 10675 10663 10650 10635 10621 10607 10591 10579 10564 10550 10535 10521 10511 10502 10491 10480 10474 10475 10476 10477 10478 10482 10482 10484 10488 10492 10500 10510 10520 10536 10550 10564 10575 10585 10592 10600 10607 10613 10618 10623 10628 10633
10727 10719 10712 10702 10692 10682 10671 10659 10646 10632 10619 10607 10593 10581 10570 10559 10548 10531 10517 10513 10500 10493 10492 10490 10486 10486 10486 10487 10489 10490 10492 10498 10505 10517 10528 10543 10559 10571 10583 10592 10600 10605 10609 10612 10616 10619 10623
10728 10721 10714 10707 10696 10687 10678 10667 10656 10644 10631 10620 10609 10597 10586 10578 10567 10556 10542 10537 10527 10518 10509 10501 10498 10495 10493 10493 10495 10498 10500 10502 10507 10516 10528 10541 10556 10568 10578 10589 10595 10600 10603 10605 10607 10609 10612
10727 10723 10716 10710 10702 10692 10684 10675 10665 10654 10643 10632 10622 10613 10602 10591 10581 10571 10556 10554 10552 10546 10534 10525 10517 10509 10505 10502 10501 10504 10507 10513 10519 10526 10532 10543 10556 10568 10578 10586 10592 10596 10598 10600 10602 10604 10606
10728 10722 10717 10712 10705 10698 10690 10682 10673 10664 10655 10645 10636 10626 10619 10608 10597 10587 10573 10568 10570 10560 10554 10545 10537 10530 10522 10518 10515 10514 10516 10520 10527 10534 10545 10555 10565 10573 10580 10584 10589 10592 10595 10596 10597 10599 10600
10728 10723 10717 10712 10707 10702 10696 10689 10681 10673 10665 10657 10648 10641 10632 10623 10616 10607 10595 10592 10592 10580 10573 10566 10559 10555 10546 10538 10532 10528 10528 10531 10536 10542 10551 10561 10569 10576 10581 10585 10588 10589 10590 10591 10592 10592 10592
10727 10722 10717 10712 10708 10704 10699 10693 10686 10680 10673 10666 10659 10650 10642 10635 10629 10623 10613 10614 10606 10599 10589 10582 10576 10573 10568 10564 10560 10554 10550 10549 10550 10553 10559 10566 10572 10577 10580 10582 10584 10584 10585 10585 10586 10584 10584
10724 10721 10717 10712 10708 10705 10700 10696 10690 10685 10679 10672 10666 10659 10652 10647 10641 10636 10628 10626 10620 10614 10607 10601 10595 10590 10588 10584 10583 10579 10576 10573 10570 10569 10570 10572 10574 10576 10578 10580 10581 10582 10582 10581 10580 10578 10576
10721 10718 10715 10711 10707 10705 10701 10697 10693 10688 10683 10678 10672 10666 10660 10654 10650 10644 10638 10635 10631 10626 10621 10616 10611 10607 10602 10601 10598 10594 10592 10590 10589 10587 10585 10585 10585 10585 10585 10585 10584 10584 10584 10582 10580 10579 10577
10716 10714 10712 10709 10705 10703 10699 10697 10693 10689 10685 10680 10676 10672 10667 10661 10656 10651 10646 10642 10638 10633 10629 10624 10621 10617 10613 10610 10607 10606 10604 10602 10602 10601 10600 10598 10596 10595 10593 10593 10591 10589 10587 10585 10582 10580 10578
10710 10708 10708 10706 10703 10700 10698 10694 10691 10688 10686 10682 10678 10674 10670 10666 10662 10658 10653 10648 10645 10641 10636 10631 10629 10626 10623 10620 10617 10615 10613 10612 10610 10609 10608 10607 10606 10605 10602 10600 10598 10595 10592 10589 10586 10583 10581
10703 10702 10702 10700 10697 10697 10695 10692 10690 10687 10685 10682 10679 10676 10672 10669 10666 10663 10660 10656 10652 10648 10645 10641 10638 10633 10630 10628 10625 10622 10619 10618 10616 10615 10614 10613 10611 10609 10607 10604 10602 10599 10596 10593 10589 10586 10582
10697 10696 10695 10695 10694 10692 10691 10688 10686 10684 10681 10679 10677 10675 10672 10669 10667 10664 10662 10659 10657 10653 10650 10648 10644 10640 10638 10634 10630 10627 10625 10622 10620 10617 10615 10614 10613 10611 10608 10606 10604 10601 10598 10595 10592 10587 10583
10689 10689 10689 10689 10688 10687 10685 10683 10681 10679 10677 10674 10672 10671 10670 10667 10664 10662 10660 10657 10655 10653 10651 10648 10647 10644 10640 10637 10634 10631 10628 10625 10622 10619 10617 10614 10612 10610 10608 10605 10603 10600 10596 10594 10589 10585 10581
10680 10681 10681 10681 10681 10681 10679 10678 10675 10674 10673 10671 10668 10667 10665 10663 10661 10659 10657 10655 10652 10650 10649 10647 10644 10642 10639 10636 10634 10632 10629 10625 10622 10619 10617 10614 10612 10609 10607 10604 10601 10597 10593 10589 10586 10582 10577
10671 10672 10673 10672 10672 10672 10672 10671 10669 10668 10666 10665 10664 10662 10660 10658 10657 10654 10652 10650 10649 10647 10644 10641 10640 10637 10634 10632 10629 10628 10625 10622 10620 10618 10614 10610 10607 10604 10600 10597 10595 10593 10589 10585 10580 10577 10571
10660 10661 10661 10661 10662 10662 10661 10661 10661 10660 10659 10657 10656 10654 10652 10652 10651 10649 10647 10645 10642 10640 10639 10637 10634 10631 10628 10626 10623 10621 10619 10616 10614 10610 10609 10606 10604 10602 10598 10591 10586 10586 10579 10576 10574 10567 10563
10648 10649 10650 10650 10651 10651 10651 10650 10650 10649 10648 10648 10647 10645 10644 10643 10641 10640 10638 10637 10634 10631 10629 10628 10627 10625 10622 10619 10616 10613 10611 10610 10606 10603 10601 10598 10595 10594 10592 10589 10580 10575 10572 10569 10565 10560 10553
10634 10635 10636 10637 10639 10640 10639 10640 10640 10639 10638 10638 10637 10635 10633 10631 10632 10629 10627 10625 10624 10622 10620 10617 10616 10614 10613 10611 10607 10604 10600 10599 10597 10593 10592 10589 10589 10586 10583 10579 10575 10568 10563 10558 10555 10550 10546
10619 10621 10623 10624 10625 10626 10627 10627 10628 10628 10627 10627 10624 10623 10620 10617 10618 10618 10615 10613 10611 10610 10609 10606 10605 10603 10600 10600 10598 10595 10592 10588 10585 10581 10577 10575 10574 10575 10571 10563 10561 10559 10554 10550 10545 10539 10534